Arsene-OSCAR-24

operational
NORAD ID: 22654 Int'l Des: 1993-031 Owner: RACE Country: F
MEOELLIPTICALHEO_ELLIPTICAL

关于 Arsene-OSCAR-24

正在加载描述...

实时位置

正在加载3D地球...

即将过境

高度历史

Altitude vs Time

uPlot chart will show altitude changes over time

两行轨道根数

1 22654U 93031B 26062.32946117 -.00000147 00000-0 00000+0 0 9996
2 22654 5.1055 50.1338 2850292 329.6636 19.7452 1.42202894165923
Epoch: Mar 3, 2026 • Age: 20 hours

当前状态

高度 29080.8 km
速度 3.25 km/s
星下点 -2.63°S, 162.87°E
发射日期 May 12, 1993
运行时间 32.8 years
类型 other

技术详情

分类 Payload
质量 87.00 kg
干质量 87.00 kg
总质量 154.00 kg
长度 1.10 m
直径 1.00 m
跨度 1.10 m
形状 Hex Cyl
制造商 AESPC
平台类型 Arsene
阶段状态 In Orbit
所有者/国家 RACE/F

大型星座

Loading constellations...